Miscellaneous Local Product
Issued by NWS Hastings, NE

Home | Current Version | Previous Version | Graphics & Text | Print | Product List | Glossary On
Versions: 1 2 3 4 5 6 7 8 9 10 11 12 13 14 15 16 17 18 19 20 21 22 23 24 25 26 27 28 29 30 31 32 33 34 35 36 37 38 39 40 41 42 43 44 45 46 47 48 49 50
941
AXUS43 KGID 280402
MISGRI

GID CWA HOURLY WEATHER ROUNDUP
NATIONAL WEATHER SERVICE HASTINGS NE
1100 PM CDT TUE SEP 27 2016

NOTE: "FAIR" INDICATES FEW OR NO CLOUDS BELOW 12,000 FEET WITH NO
SIGNIFICANT WEATHER AND/OR OBSTRUCTIONS TO VISIBILITY.

...SOUTH CENTRAL NEBRASKA...

CITY           SKY/WX    TMP DP  RH WIND       PRES   REMARKS
GRAND ISLAND   CLEAR     58  47  66 N7        29.95R
HASTINGS       CLEAR     59  47  64 N6        29.95R
KEARNEY        CLEAR     63  45  51 NW8       29.96R
ORD            CLEAR     55  43  63 NW3       29.97R
YORK           CLEAR     55  50  82 CALM      29.93R
AURORA         CLEAR     57  49  75 NE6       29.93R
LEXINGTON      CLEAR     54  45  72 W7        29.99R
HOLDREGE       CLEAR     56  47  71 N3        29.97R
HEBRON         CLEAR     56  51  83 CALM      29.91R

...NEBRASKA PANHANDLE...

CITY           SKY/WX    TMP DP  RH WIND       PRES   REMARKS
CHADRON        CLEAR     54  44  69 SW9       30.08R
ALLIANCE       CLEAR     48  39  71 CALM      30.09R
SCOTTSBLUFF    CLEAR     56  42  59 CALM      30.11R
SIDNEY         CLEAR     50  35  56 W7        30.13R

...WESTERN AND NORTH CENTRAL NEBRASKA...

CITY           SKY/WX    TMP DP  RH WIND       PRES   REMARKS
VALENTINE      CLEAR     54  40  59 NW3       30.01R
AINSWORTH      CLEAR     56  46  69 CALM      30.01S
ONEILL         CLEAR     56  45  64 N7        29.98R
BROKEN BOW     CLEAR     54  42  64 N5        30.00R
IMPERIAL       CLEAR     57  40  52 W3        30.04R
NORTH PLATTE   CLEAR     55  45  68 CALM      30.01R
MCCOOK         CLEAR     57  46  66 CALM      30.00R

...EASTERN NEBRASKA...

CITY           SKY/WX    TMP DP  RH WIND       PRES   REMARKS
NORFOLK        CLEAR     56  46  69 W6        29.93R
SO SIOUX CITY  CLEAR     54  48  80 NW3       29.89R
TEKAMAH        CLEAR     53  48  83 N3        29.88R
COLUMBUS       CLEAR     54  43  66 CALM      29.92S
ALBION         CLEAR     52  47  84 CALM      29.95R
OMAHA EPPLEY   CLEAR     60  51  72 CALM      29.87S
OFFUTT AFB     CLEAR     53  52  99 CALM      29.87R
MILLARD        CLEAR     57  53  88 CALM      29.88S
LINCOLN        CLEAR     55  51  86 N5        29.91R
NEBRASKA CITY  CLEAR     60  40  48 W7        29.88S
BEATRICE       CLEAR     58  52  80 CALM      29.89S
FALLS CITY     CLEAR     60  53  77 CALM      29.87R

...NORTHERN KANSAS...

CITY           SKY/WX    TMP DP  RH WIND       PRES   REMARKS
GOODLAND       CLEAR     54  40  59 CALM      30.07R
HILL CITY      CLEAR     57  49  74 W7        29.97S
NORTON         CLEAR     57  39  51 W8        29.96
PHILLIPSBURG   CLEAR     59  50  72 NW7       29.94R
SMITH CENTER   CLEAR     61  50  67 W5        29.93R
HAYS           CLEAR     61  45  55 W3        29.96R
RUSSELL        CLEAR     61  52  72 S7        29.93S
CONCORDIA      CLEAR     67  50  54 SW6       29.89S
SALINA         CLEAR     60  54  80 S6        29.90F
TOPEKA         CLEAR     61  56  83 CALM      29.88S



USA.gov is the U.S. government's official web portal to all federal, state and local government web resources and services.